Location: Cold Norton
(51.6667°N, 0.6667°E)
Time: 18:19:25
(UTC+00:00)

CZ-4C R/B - Pass Details

Date: 18 November 2025
Orbit: 487 x 1492 km, 63.4° (Epoch: 10 December)

Event Time Altitude Azimuth Distance (km) Brightness Sun altitude
Rises 18:43:32 0° 289° (WNW) 3,130 6.3 -24.5°
Reaches altitude 10° 18:46:01 10° 302° (WNW) 2,352 5.3 -24.9°
Maximum altitude 18:50:42 28° 1° (N) 1,684 3.7 -25.6°
Enters shadow 18:52:01 26° 21° (NNE) 1,821 3.7 -25.8°
